Weather in Kholkina

Russia / Sverdlovsk Oblast     57°03′49″N   63°00′37″E
temp.,
°C
wind,
m/s
gust,
m/s
humid.,
%
clouds,
%
prec.,
mm/h
press.,
hPa
HPBL,
m
26 july, mon
mon2623:00+11nw475945 0.0 1016112
02:00+13nw3758100 0.0 1017205
05:00+9nw48755 0.0 1018126
08:00+14nw48515 0.0 1018566
11:00+16nw6842100 0.0 10181596
14:00+19wnw7736100 0.0 10172290
17:00+19wnw573465 0.0 10162210
20:00+17w474598 0.0 1016348
27 july, tue
tue2723:00+14wsw486098 0.0 1015182
02:00+10w48805 0.0 1015133
05:00+9wsw36885 0.0 1014109
08:00+15sw4106287 0.0 1012426
11:00+20w81045100 0.0 10102110
14:00+13w3993100 2.1 1011494
17:00+19wnw585554 2.4 10091621
20:00+17w4865100 0.3 1009418
28 july, wed
wed2823:00+12nnw5127970 0.3 1010281
02:00+11nw496912 0.0 1009344
05:00+6nw48895 0.0 1010141
08:00+13wnw595966 0.0 1010671
11:00+16wnw684897 0.1 10081871
14:00+16wnw685599 0.7 10081808
17:00+16nw694597 1.1 10092058
20:00+13n245189 0.0 1010264
29 july, thu
thu2923:00+12wnw485642 0.0 1011403
02:00+7wnw3675100 0.0 1011125
05:00+7wsw3578100 0.0 1011107
08:00+8w1286100 0.6 101089
11:00+10ssw3685100 0.8 1010308
14:00+17w466174 0.1 10091301
17:00+20wnw465347 0.4 10071152
20:00+17w1271100 0.4 100720
30 july, fri
fri3023:00+13s3395100 3.9 100771
02:00+13sw4995100 0.1 1006191
05:00+12wsw389539 0.1 1005154
08:00+16wnw358693 0.0 1006305
11:00+22w4562100 0.0 1006922
14:00+23wsw4562100 1.0 10051288
17:00+24ssw5554100 1.9 10041423
20:00+20ssw4771100 0.2 1004261